Location: Bonny Doon Airfield
(37.0704°N, 122.1252°W)
Time: 04:28:29
(UTC-08:00)

Vanguard 1 Rocket - Pass Details

Date: 23 October 2017
Orbit: 655 x 4222 km, 34.3° (Epoch: 18 November)

Event Time Altitude Azimuth Distance (km) Brightness Sun altitude
Rises 07:20:31 0° 244° (WSW) 5,798 11.0 -1.5°
Reaches altitude 10° 07:25:11 10° 240° (WSW) 4,208 10.4 -0.6°
Maximum altitude 07:34:43 53° 168° (SSE) 1,357 8.6 1.2°
Drops below altitude 10° 07:40:08 10° 91° (E) 2,432 11.4 2.2°
Sets 07:42:10 0° 86° (E) 3,196 11.8 2.6°
